Flag for Germany Weather past 2 weeks in Frankfurt, Hesse, Germany

Now
55 °F

Partly sunny.


Feels Like: 55 °F
Forecast: 49 / 60 °F
Wind: No wind

Location: Frankfurt-M-Flughafen Airport

Current Time: Oct 25, 2014 at 6:32:16 PM

Latest Report: Oct 25, 2014 at 5:50 PM


Visibility: N/A

Pressure: 30.15 "Hg

Humidity: 88%

Dew point: 52 °F

Location of FrankfurtLocation

Historic Weather in Frankfurt — Graph

°F

Frankfurt temperature yesterday

Maximum temperature yesterday: 55 °F (at 3:20 PM)
Minimum temperature yesterday: 39 °F (at 2:20 AM)
Average temperature yesterday: 46 °F

Past Weeks' High & Low Weather Summary

 TemperatureHumidityPressure
High72 °F (Oct 19, 3:50 PM)100% (Oct 10, 9:20 PM)30.27 "Hg (Oct 10, 9:20 PM)
Low39 °F (Oct 24, 2:20 AM)60% (Oct 20, 1:50 PM)29.56 "Hg (Oct 21, 5:50 PM)
Average55 °F89%29.97 "Hg
* Reported Oct 10 5:20 PM — Oct 25 5:20 PM, Frankfurt, Weather by CustomWeather, © 2014

Note: Actual official high and low records may vary slightly from our data, if they occured in-between our weather recording intervals... More about our weather records

Advertising

Frankfurt weather history for previous 24 hours

 ConditionsComfort  
Time TempWeatherWind HumidityBarometerVisibility
5:20 PM
Oct 25
55 °FPartly sunny.No wind82%30.15 "HgN/A
4:50 PM55 °FPartly sunny.No wind82%30.15 "HgN/A
4:20 PM55 °FPartly sunny.1 mph82%30.15 "HgN/A
3:50 PM54 °FBroken clouds.3 mph88%30.15 "HgN/A
3:20 PM54 °FBroken clouds.5 mph88%30.12 "HgN/A
2:50 PM54 °FDrizzle. Broken clouds.5 mph88%30.12 "HgN/A
2:20 PM54 °FBroken clouds.6 mph88%30.12 "HgN/A
1:50 PM54 °FPartly sunny.5 mph88%30.12 "HgN/A
1:20 PM54 °FPartly sunny.3 mph88%30.15 "HgN/A
12:50 PM54 °FBroken clouds.3 mph82%30.15 "HgN/A
12:20 PM52 °FPartly sunny.5 mph88%30.15 "HgN/A
11:50 AM52 °FPartly sunny.6 mph88%30.12 "HgN/A
11:20 AM50 °FPartly sunny.3 mph94%30.12 "HgN/A
10:50 AM50 °FPartly sunny.2 mph94%30.12 "HgN/A
10:20 AM48 °FBroken clouds.2 mph94%30.12 "HgN/A
9:50 AM48 °FBroken clouds.No wind94%30.12 "HgN/A
9:20 AM48 °FPartly sunny.1 mph94%30.12 "HgN/A
8:50 AM46 °FPassing clouds.2 mph100%30.12 "HgN/A
8:20 AM48 °FPartly cloudy.3 mph94%30.09 "HgN/A
7:50 AM46 °FLight rain. Partly cloudy.1 mph100%30.09 "HgN/A
7:20 AM48 °FLight rain. Partly cloudy.2 mph94%30.09 "HgN/A
6:50 AM48 °FLight rain. Passing clouds.2 mph94%30.09 "HgN/A
6:20 AM48 °FLight rain. Passing clouds.No wind94%30.09 "HgN/A
5:50 AM48 °FClear.No wind94%30.09 "Hg10 mi
5:20 AM48 °FClear.No wind94%30.09 "Hg10 mi
4:50 AM48 °FClear.No wind94%30.09 "Hg10 mi
4:20 AM48 °FClear.3 mph94%30.09 "Hg10 mi
3:50 AM48 °FClear.No wind94%30.09 "Hg10 mi
3:20 AM48 °FClear.3 mph94%30.09 "Hg10 mi
2:50 AM48 °FClear.5 mph94%30.09 "Hg10 mi
2:20 AM48 °FClear.No wind94%30.09 "Hg10 mi
1:50 AM48 °FClear.1 mph94%30.09 "Hg10 mi
1:20 AM48 °FPassing clouds.2 mph94%30.09 "HgN/A
12:50 AM48 °FPassing clouds.No wind94%30.09 "HgN/A
12:20 AM48 °FPassing clouds.2 mph94%30.09 "HgN/A
11:50 PM
Oct 24
48 °FPassing clouds.3 mph94%30.09 "HgN/A
11:20 PM50 °FClear.3 mph88%30.12 "Hg10 mi
10:50 PM50 °FClear.5 mph88%30.12 "Hg10 mi
10:20 PM48 °FClear.2 mph94%30.12 "Hg10 mi
9:50 PM46 °FClear.2 mph100%30.12 "Hg10 mi
9:20 PM46 °FClear.1 mph93%30.12 "Hg10 mi
8:50 PM46 °FPassing clouds.3 mph93%30.12 "HgN/A
8:20 PM46 °FClear.1 mph100%30.12 "Hg10 mi
7:50 PM48 °FClear.1 mph94%30.12 "Hg10 mi
7:20 PM48 °FClear.1 mph94%30.12 "Hg10 mi
6:50 PM50 °FSunny.No wind88%30.12 "Hg10 mi
6:20 PM50 °FSunny.No wind94%30.12 "Hg10 mi
Weather by CustomWeather, © 2014

See weather overviewHow to use our weather pages